Greensboro, NC

6:00 AM EDT on May 27, 2017 (GMT -0400)
Piedmont Triad International

Weather History for KGSO - May, 2014

Change the Weather History Date:

Thursday, May 8, 2014

  Actual Average Record
Temperature  
Mean Temperature 73 °F 65 °F  
Max Temperature 88 °F 76 °F 94 °F (1940)
Min Temperature 58 °F 54 °F 32 °F (1989)
Degree Days  
Heating Degree Days 0 3  
Month to date heating degree days 8 28  
Since 1 July heating degree days 3795 3574  
Cooling Degree Days 8 3  
Month to date cooling degree days 24 17  
Year to date cooling degree days 44 55  
Growing Degree Days 22 (Base 50)    
Moisture  
Dew Point 54 °F    
Average Humidity 60    
Maximum Humidity 97    
Minimum Humidity 22    
Precipitation  
Precipitation 0.00 in 0.11 in 1.71 in (1915)
Month to date precipitation 0.00 0.83  
Year to date precipitation 14.88 14.15  
Sea Level Pressure  
Sea Level Pressure 30.10 in    
Wind  
Wind Speed 7 mph (SW)    
Max Wind Speed 16 mph    
Max Gust Speed 22 mph    
Visibility 8 miles    
Events Fog    
T = Trace of Precipitation, MM = Missing Value Source: NWS Daily Summary

Daily Weather History Graph

Daily Weather History Graph

Search for Another Location

Airport or City:

Trip Planner

Search our weather history database for the weather conditions in past years. The results will help you decide how hot, cold, wet, or windy it might be!

Date:

Astronomy

May. 08, 2014 Rise Set
Actual Time 6:19 AM EDT 8:13 PM EDT
Civil Twilight 5:51 AM EDT 8:41 PM EDT
Nautical Twilight 5:17 AM EDT 9:15 PM EDT
Astronomical Twilight 4:41 AM EDT 9:51 PM EDT
Moon 2:23 PM EDT (5/8) 2:38 AM EDT (5/8)
Length of Visible Light 14h 49m
Length of Day
13h 53m
Waxing Gibbous, 64% of the Moon is Illuminated
May 8
Waxing Gibbous
May 14
Full
May 21
Last Quarter
May 28
New
Jun 5
First Quarter

Hourly Weather History & Observations

Time (EDT) Temp. Heat Index Dew Point Humidity Pressure Visibility Wind Dir Wind Speed Gust Speed Precip Events Conditions
12:54 AM 63.0 °F - 60.1 °F 90% 30.09 in 8.0 mi SSW 3.5 mph - N/A   Partly Cloudy
1:54 AM 64.0 °F - 61.0 °F 90% 30.07 in 7.0 mi SSW 5.8 mph - N/A   Clear
2:54 AM 62.1 °F - 60.1 °F 93% 30.06 in 5.0 mi WSW 3.5 mph - N/A   Clear
3:54 AM 62.1 °F - 60.1 °F 93% 30.07 in 4.0 mi Calm Calm - N/A   Clear
4:54 AM 62.1 °F - 60.1 °F 93% 30.09 in 4.0 mi SSW 3.5 mph - N/A Fog Shallow Fog
5:54 AM 60.1 °F - 59.0 °F 96% 30.11 in 3.0 mi Calm Calm - N/A Fog Shallow Fog
6:54 AM 57.9 °F - 55.9 °F 93% 30.13 in 5.0 mi SSW 5.8 mph - N/A   Scattered Clouds
7:54 AM 64.0 °F - 59.0 °F 84% 30.15 in 7.0 mi SW 5.8 mph - N/A   Scattered Clouds
8:54 AM 72.0 °F - 57.9 °F 61% 30.15 in 10.0 mi SW 4.6 mph - N/A   Scattered Clouds
9:54 AM 75.9 °F - 55.0 °F 48% 30.17 in 10.0 mi WSW 8.1 mph - N/A   Mostly Cloudy
10:54 AM 81.0 °F 80.7 °F 55.0 °F 41% 30.16 in 10.0 mi WSW 12.7 mph - N/A   Mostly Cloudy
11:54 AM 82.0 °F 81.2 °F 53.1 °F 37% 30.16 in 10.0 mi SW 8.1 mph - N/A   Partly Cloudy
12:54 PM 84.0 °F 82.6 °F 54.0 °F 35% 30.14 in 10.0 mi SW 9.2 mph - N/A   Partly Cloudy
1:54 PM 84.9 °F 83.2 °F 53.1 °F 33% 30.12 in 10.0 mi SW 6.9 mph - N/A   Partly Cloudy
2:54 PM 87.1 °F - 48.9 °F 27% 30.10 in 10.0 mi WSW 11.5 mph 21.9 mph N/A   Partly Cloudy
3:54 PM 88.0 °F - 46.9 °F 24% 30.08 in 10.0 mi West 13.8 mph - N/A   Partly Cloudy
4:54 PM 88.0 °F - 44.1 °F 22% 30.07 in 10.0 mi WSW 12.7 mph - N/A   Partly Cloudy
5:54 PM 87.1 °F - 44.1 °F 22% 30.07 in 10.0 mi SW 10.4 mph 19.6 mph N/A   Partly Cloudy
6:54 PM 84.9 °F - 48.9 °F 29% 30.06 in 10.0 mi SW 9.2 mph - N/A   Partly Cloudy
7:54 PM 80.1 °F - 50.0 °F 35% 30.07 in 10.0 mi SW 5.8 mph - N/A   Mostly Cloudy
8:54 PM 75.9 °F - 52.0 °F 43% 30.09 in 10.0 mi SW 6.9 mph - N/A   Mostly Cloudy
9:54 PM 73.9 °F - 54.0 °F 50% 30.10 in 10.0 mi SW 6.9 mph - N/A   Partly Cloudy
10:54 PM 72.0 °F - 54.0 °F 53% 30.11 in 10.0 mi SW 4.6 mph - N/A   Partly Cloudy
11:54 PM 71.1 °F - 55.0 °F 57% 30.10 in 10.0 mi SW 6.9 mph - N/A   Scattered Clouds